DLH490 EDDF-KSEA

Flight info

Callsign DLH490
Flight time N/A
Altitude 34000
Route MARUN8M/25C MARUN Y152 ARPEG Z850 ABILU DCT ATPAQ DCT OMIMA DCT ATNAK/N0468F360 DCT GUNPA/M081F360 DCT 66N010W 70N020W 73N040W/M080F380 73N060W DCT MEDPA/N0464F380 DCT 71N080W 6830N09000W 65N100W 60N110W/N0458F400 55N116W DCT LONRO DCT YDC DCT JAKSN GLASR3
Aircraft A343/H-SDE2E3FGHIJ4J5M1RWXY/LB1D1

Departure

Time 2026-05-04 09:14
Airport Frankfurt Main Airport (EDDF)

Arrival

Time N/A
Airport Seattle–Tacoma International Airport (KSEA)
Time Latitude Longitude Altitude Speed Heading
2026-05-04 08:35 50.04596 8.57054 370 ft 0 kts 59°
2026-05-04 09:01 50.04594 8.56908 366 ft 4 kts 186°
2026-05-04 09:01 50.04602 8.56909 369 ft 4 kts 193°
2026-05-04 09:01 50.04575 8.56900 370 ft 4 kts 193°
2026-05-04 09:01 50.04552 8.56891 367 ft 1 kts 194°
2026-05-04 09:02 50.04552 8.56890 367 ft 0 kts 194°
2026-05-04 09:05 50.04543 8.56887 366 ft 4 kts 194°
2026-05-04 09:06 50.04506 8.56872 365 ft 6 kts 194°
2026-05-04 09:07 50.04344 8.57176 370 ft 14 kts 71°
2026-05-04 09:08 50.04377 8.57325 371 ft 14 kts 70°
2026-05-04 09:08 50.04410 8.57469 369 ft 14 kts 70°
2026-05-04 09:08 50.04442 8.57600 373 ft 11 kts 69°
2026-05-04 09:08 50.04471 8.57719 374 ft 14 kts 69°
2026-05-04 09:09 50.04509 8.57876 374 ft 16 kts 70°
2026-05-04 09:09 50.04549 8.58045 371 ft 17 kts 69°
2026-05-04 09:09 50.04588 8.58209 372 ft 14 kts 70°
2026-05-04 09:09 50.04619 8.58340 375 ft 12 kts 69°
2026-05-04 09:10 50.04649 8.58467 374 ft 13 kts 70°
2026-05-04 09:10 50.04636 8.58571 376 ft 9 kts 140°
2026-05-04 09:10 50.04583 8.58599 375 ft 7 kts 163°
2026-05-04 09:10 50.04536 8.58620 377 ft 8 kts 168°
2026-05-04 09:11 50.04489 8.58586 378 ft 7 kts 234°
2026-05-04 09:11 50.04462 8.58486 377 ft 18 kts 249°
2026-05-04 09:11 50.04363 8.58070 371 ft 65 kts 250°
2026-05-04 09:11 50.04152 8.57188 375 ft 107 kts 249°
2026-05-04 09:12 50.03851 8.55919 361 ft 142 kts 250°
2026-05-04 09:12 50.03467 8.54336 394 ft 166 kts 249°
2026-05-04 09:14 49.96996 8.47570 2924 ft 195 kts 200°
2026-05-04 09:14 49.95687 8.46903 3397 ft 199 kts 199°
2026-05-04 09:14 49.94327 8.46261 3766 ft 212 kts 198°
2026-05-04 09:14 49.92860 8.45586 4153 ft 226 kts 201°
2026-05-04 09:15 49.91484 8.44285 4508 ft 240 kts 225°
2026-05-04 09:15 49.90567 8.42080 4947 ft 251 kts 252°
2026-05-04 09:15 49.90486 8.39353 5466 ft 262 kts 284°
2026-05-04 09:15 49.91454 8.36962 6095 ft 270 kts 317°
2026-05-04 09:17 50.06307 8.28506 10585 ft 324 kts 12°
2026-05-04 09:18 50.07762 8.29168 10761 ft 333 kts 17°
2026-05-04 09:18 50.10002 8.30364 11012 ft 347 kts 18°
2026-05-04 09:18 50.12322 8.31621 11256 ft 360 kts 18°
2026-05-04 09:18 50.14728 8.32909 11558 ft 370 kts 17°
2026-05-04 09:19 50.17191 8.34216 12009 ft 375 kts 17°
2026-05-04 09:19 50.19677 8.35531 12503 ft 379 kts 17°
2026-05-04 09:19 50.22185 8.36855 13014 ft 383 kts 17°
2026-05-04 09:19 50.24725 8.38195 13542 ft 386 kts 17°
2026-05-04 09:20 50.27280 8.39543 14050 ft 389 kts 17°
2026-05-04 09:20 50.29857 8.40903 14499 ft 393 kts 17°
2026-05-04 09:20 50.32453 8.42302 14957 ft 396 kts 18°
2026-05-04 09:20 50.35073 8.43737 15411 ft 400 kts 18°
2026-05-04 09:21 50.37707 8.45181 15894 ft 403 kts 18°
2026-05-04 09:21 50.40368 8.46637 16352 ft 407 kts 18°
2026-05-04 09:21 50.43050 8.48104 16823 ft 410 kts 18°
2026-05-04 09:21 50.45757 8.49586 17279 ft 413 kts 18°
2026-05-04 09:22 50.48488 8.51073 17742 ft 417 kts 17°
2026-05-04 09:22 50.51275 8.52430 18211 ft 420 kts 15°
2026-05-04 09:22 50.54053 8.53725 18611 ft 424 kts 15°
2026-05-04 09:22 50.56888 8.55055 19018 ft 427 kts 15°
2026-05-04 09:23 50.59746 8.56409 19384 ft 431 kts 15°
2026-05-04 09:23 50.62623 8.57782 19797 ft 433 kts 15°
2026-05-04 09:23 50.65519 8.59170 20193 ft 436 kts 15°
2026-05-04 09:23 50.68428 8.60567 20604 ft 438 kts 15°
2026-05-04 09:25 50.87857 8.56722 23336 ft 423 kts 309°
2026-05-04 09:25 50.89823 8.53254 23703 ft 423 kts 306°
2026-05-04 09:26 50.91718 8.49677 24020 ft 424 kts 305°
2026-05-04 09:26 50.93595 8.46046 24305 ft 426 kts 305°
2026-05-04 09:26 50.95478 8.42397 24620 ft 428 kts 305°
2026-05-04 09:26 50.97379 8.38740 24939 ft 430 kts 305°
2026-05-04 09:27 50.99300 8.35083 25242 ft 432 kts 306°
2026-05-04 09:27 51.01421 8.31652 25540 ft 439 kts 315°
2026-05-04 09:27 51.03904 8.28763 25845 ft 445 kts 322°
2026-05-04 09:27 51.06510 8.26204 26164 ft 447 kts 324°
2026-05-04 09:28 51.09207 8.23733 26479 ft 449 kts 326°
2026-05-04 09:28 51.11947 8.21312 26742 ft 452 kts 326°
2026-05-04 09:28 51.14705 8.18902 27040 ft 453 kts 326°
2026-05-04 09:28 51.17473 8.16481 27309 ft 455 kts 326°
2026-05-04 09:29 51.20254 8.14030 27557 ft 457 kts 326°
2026-05-04 09:29 51.23037 8.11559 27805 ft 458 kts 326°
2026-05-04 09:29 51.25830 8.09065 28079 ft 460 kts 326°
2026-05-04 09:29 51.28625 8.06558 28335 ft 462 kts 325°
2026-05-04 09:30 51.31428 8.04038 28652 ft 462 kts 325°
2026-05-04 09:30 51.34230 8.01515 28948 ft 463 kts 325°
2026-05-04 09:30 51.37047 7.98983 29185 ft 465 kts 326°
2026-05-04 09:30 51.40005 7.96785 29412 ft 472 kts 334°
2026-05-04 09:31 51.43178 7.95295 29643 ft 480 kts 344°
2026-05-04 09:31 51.46488 7.94427 29885 ft 484 kts 347°
2026-05-04 09:31 51.49831 7.93744 30118 ft 486 kts 348°
2026-05-04 09:31 51.53202 7.93152 30323 ft 487 kts 349°
2026-05-04 09:32 51.56531 7.92608 30595 ft 487 kts 349°
2026-05-04 09:32 51.59897 7.92064 30859 ft 486 kts 349°
2026-05-04 09:34 51.83434 7.88009 32421 ft 485 kts 349°
2026-05-04 09:34 51.86792 7.87417 32632 ft 485 kts 349°
2026-05-04 09:34 51.90149 7.86824 32818 ft 485 kts 348°
2026-05-04 09:34 51.93501 7.86231 33020 ft 485 kts 348°
2026-05-04 09:35 51.96855 7.85638 33198 ft 485 kts 348°
2026-05-04 09:35 52.00208 7.85044 33380 ft 485 kts 348°
2026-05-04 09:35 52.03518 7.84457 33639 ft 484 kts 348°
2026-05-04 09:35 52.06858 7.83865 33851 ft 483 kts 348°
2026-05-04 09:37 52.30551 7.79630 33995 ft 490 kts 348°
2026-05-04 09:37 52.33934 7.79023 33993 ft 490 kts 348°
2026-05-04 09:38 52.40705 7.77803 33994 ft 489 kts 348°
2026-05-04 09:38 52.47483 7.76578 33995 ft 489 kts 348°
2026-05-04 09:39 52.54174 7.75127 34001 ft 484 kts 341°
2026-05-04 09:39 52.60688 7.72511 33995 ft 481 kts 340°
2026-05-04 09:40 52.67155 7.69693 33994 ft 481 kts 339°
2026-05-04 09:40 52.73616 7.66828 33996 ft 481 kts 339°
2026-05-04 09:42 52.99451 7.55376 33993 ft 479 kts 340°
2026-05-04 09:43 53.05852 7.52523 33996 ft 478 kts 340°
2026-05-04 09:43 53.12274 7.49651 33999 ft 478 kts 340°
2026-05-04 09:44 53.18696 7.46769 34005 ft 478 kts 340°
2026-05-04 09:46 53.44483 7.35100 34000 ft 484 kts 340°
2026-05-04 09:46 53.50951 7.32155 33998 ft 484 kts 340°
2026-05-04 09:47 53.57443 7.29189 34005 ft 483 kts 340°
2026-05-04 09:49 53.83422 7.17214 34010 ft 484 kts 340°
2026-05-04 09:51 54.06097 7.06634 34032 ft 483 kts 340°
2026-05-04 09:51 54.12575 7.03591 34032 ft 483 kts 340°
2026-05-04 09:52 54.19054 7.00536 34034 ft 482 kts 340°
2026-05-04 09:52 54.25489 6.97491 34034 ft 483 kts 340°
2026-05-04 09:53 54.31967 6.94417 34043 ft 483 kts 340°
2026-05-04 09:53 54.38435 6.91336 34033 ft 481 kts 340°
2026-05-04 09:54 54.44884 6.88257 34031 ft 480 kts 340°
2026-05-04 09:54 54.51325 6.85170 34031 ft 480 kts 340°
2026-05-04 09:55 54.57724 6.82095 34045 ft 480 kts 341°
2026-05-04 09:55 54.64139 6.79017 34034 ft 477 kts 341°
2026-05-04 09:56 54.70541 6.75924 34034 ft 477 kts 341°
2026-05-04 09:56 54.76935 6.72806 34034 ft 477 kts 340°
2026-05-04 09:57 54.83323 6.69685 34045 ft 477 kts 341°
2026-05-04 09:57 54.89706 6.66564 34034 ft 475 kts 341°
2026-05-04 09:58 54.96075 6.63441 34034 ft 475 kts 341°
2026-05-04 09:58 55.02294 6.59692 34034 ft 471 kts 334°
2026-05-04 10:00 55.26136 6.41452 34030 ft 466 kts 334°
2026-05-04 10:04 55.67399 6.09116 34032 ft 459 kts 335°
2026-05-04 10:04 55.72233 6.05282 34031 ft 456 kts 335°
2026-05-04 10:05 55.78027 6.00672 34029 ft 456 kts 335°
2026-05-04 10:05 55.83823 5.96045 34029 ft 456 kts 335°
2026-05-04 10:06 55.89620 5.91402 34027 ft 456 kts 335°
2026-05-04 10:06 55.95416 5.86746 34028 ft 456 kts 335°
2026-05-04 10:08 56.15647 5.70371 34028 ft 456 kts 335°
2026-05-04 10:08 56.21430 5.65654 34020 ft 455 kts 335°
2026-05-04 10:09 56.27173 5.60955 34021 ft 453 kts 335°
2026-05-04 10:09 56.32913 5.56243 34020 ft 453 kts 335°
2026-05-04 10:10 56.38619 5.51544 34020 ft 453 kts 335°
2026-05-04 10:10 56.44358 5.46801 34013 ft 453 kts 335°
2026-05-04 10:11 56.50079 5.42062 34016 ft 450 kts 334°
2026-05-04 10:11 56.55761 5.37335 34006 ft 448 kts 334°
2026-05-04 10:12 56.61430 5.32601 34005 ft 448 kts 334°
2026-05-04 10:12 56.67101 5.27850 34003 ft 448 kts 334°
2026-05-04 10:13 56.72769 5.23088 34005 ft 448 kts 334°
2026-05-04 10:13 56.78395 5.18345 34004 ft 447 kts 334°
2026-05-04 10:14 56.84032 5.13578 34004 ft 446 kts 334°
2026-05-04 10:16 57.03562 4.96094 34409 ft 445 kts 328°
2026-05-04 10:16 57.06227 4.93227 34578 ft 444 kts 327°
2026-05-04 10:16 57.11556 4.87397 34757 ft 446 kts 327°
2026-05-04 10:17 57.14220 4.84464 34879 ft 446 kts 327°
2026-05-04 10:17 57.16892 4.81518 34990 ft 447 kts 327°
2026-05-04 10:19 57.35554 4.60865 35896 ft 446 kts 326°
2026-05-04 10:19 57.38214 4.57902 35971 ft 447 kts 326°
2026-05-04 10:19 57.43564 4.51924 35980 ft 449 kts 326°
2026-05-04 10:20 57.48909 4.45935 35980 ft 448 kts 326°
2026-05-04 10:20 57.54210 4.39975 35976 ft 447 kts 326°
2026-05-04 10:21 57.59533 4.33969 35995 ft 447 kts 325°
2026-05-04 10:21 57.64855 4.27944 35976 ft 446 kts 325°
2026-05-04 10:22 57.72806 4.18900 35976 ft 446 kts 325°
2026-05-04 10:23 57.78113 4.12838 35971 ft 447 kts 325°
2026-05-04 10:25 57.99259 3.88474 35960 ft 445 kts 324°
2026-05-04 10:25 58.04508 3.82372 35960 ft 445 kts 324°
2026-05-04 10:26 58.09777 3.76227 35955 ft 445 kts 324°
2026-05-04 10:26 58.15053 3.70051 35994 ft 445 kts 324°
2026-05-04 10:27 58.20321 3.63866 35952 ft 444 kts 324°
2026-05-04 10:27 58.25574 3.57674 35951 ft 444 kts 324°
2026-05-04 10:28 58.30821 3.51465 35947 ft 444 kts 324°
2026-05-04 10:28 58.36029 3.45281 35944 ft 444 kts 324°
2026-05-04 10:29 58.41273 3.39034 35949 ft 444 kts 324°
2026-05-04 10:29 58.46512 3.32771 35943 ft 443 kts 323°
2026-05-04 10:30 58.51731 3.26509 35943 ft 442 kts 323°
2026-05-04 10:30 58.56916 3.20265 35938 ft 442 kts 323°
2026-05-04 10:31 58.62125 3.13969 35935 ft 442 kts 323°
2026-05-04 10:32 58.80348 2.91770 35919 ft 443 kts 323°
2026-05-04 10:33 58.85554 2.85377 35922 ft 443 kts 323°
2026-05-04 10:33 58.90754 2.78968 35922 ft 443 kts 323°
2026-05-04 10:34 58.95951 2.72539 35906 ft 443 kts 323°
2026-05-04 10:34 59.01112 2.66132 35922 ft 443 kts 322°
2026-05-04 10:35 59.06294 2.59678 35900 ft 441 kts 322°
2026-05-04 10:35 59.11448 2.53232 35895 ft 440 kts 322°
2026-05-04 10:36 59.16590 2.46778 35900 ft 439 kts 322°
2026-05-04 10:36 59.21726 2.40307 35897 ft 439 kts 322°
2026-05-04 10:37 59.26862 2.33813 35897 ft 439 kts 322°
2026-05-04 10:37 59.31957 2.27349 35923 ft 439 kts 322°
2026-05-04 10:39 59.49789 2.04537 35902 ft 436 kts 321°
2026-05-04 10:40 59.54869 1.97984 35905 ft 436 kts 321°
2026-05-04 10:40 59.59947 1.91411 35920 ft 437 kts 321°
2026-05-04 10:41 59.65015 1.84827 35904 ft 435 kts 321°
2026-05-04 10:41 59.70072 1.78232 35906 ft 435 kts 321°
2026-05-04 10:42 59.75120 1.71624 35906 ft 435 kts 321°
2026-05-04 10:42 59.80131 1.65041 35901 ft 435 kts 321°
2026-05-04 10:43 59.85179 1.58385 35909 ft 435 kts 321°
2026-05-04 10:45 60.05225 1.31708 35897 ft 431 kts 321°
2026-05-04 10:45 60.10185 1.25044 35922 ft 433 kts 321°
2026-05-04 10:46 60.15185 1.18303 35922 ft 433 kts 320°
2026-05-04 10:46 60.20186 1.11540 35927 ft 431 kts 320°
2026-05-04 10:47 60.25152 1.04798 35929 ft 429 kts 320°
2026-05-04 10:47 60.30098 0.98054 35926 ft 429 kts 320°
2026-05-04 10:49 60.49820 0.70914 35936 ft 428 kts 320°
2026-05-04 10:50 60.54735 0.64089 35933 ft 428 kts 320°
2026-05-04 10:52 60.74355 0.36580 35936 ft 428 kts 319°
2026-05-04 10:52 60.78426 0.30819 35936 ft 428 kts 319°
2026-05-04 10:54 60.97978 0.02904 35936 ft 427 kts 319°
2026-05-04 10:56 61.16871 -0.26755 35939 ft 431 kts 317°
2026-05-04 10:57 61.21640 -0.34389 35940 ft 433 kts 317°
2026-05-04 10:57 61.26411 -0.42038 35939 ft 433 kts 317°
2026-05-04 10:58 61.31173 -0.49705 35936 ft 433 kts 317°
2026-05-04 10:58 61.35935 -0.57409 35948 ft 434 kts 317°
2026-05-04 10:59 61.40679 -0.65118 35941 ft 436 kts 317°
2026-05-04 10:59 61.45454 -0.72905 35941 ft 436 kts 317°
2026-05-04 11:00 61.50230 -0.80723 35942 ft 436 kts 317°
2026-05-04 11:02 61.69269 -1.12212 35944 ft 435 kts 317°
2026-05-04 11:05 62.04805 -1.72372 35953 ft 439 kts 317°
2026-05-04 11:06 62.09558 -1.80557 35955 ft 439 kts 316°
2026-05-04 11:06 62.14305 -1.88768 35956 ft 439 kts 316°
2026-05-04 11:10 62.47500 -2.47160 35964 ft 440 kts 316°
2026-05-04 11:12 62.66455 -2.81291 35960 ft 445 kts 316°
2026-05-04 11:12 62.71206 -2.89936 35962 ft 445 kts 316°
2026-05-04 11:13 62.75955 -2.98618 35951 ft 444 kts 316°
2026-05-04 11:13 62.80680 -3.07290 35999 ft 442 kts 316°
2026-05-04 11:14 62.85401 -3.15997 35963 ft 445 kts 316°
2026-05-04 11:16 63.04263 -3.51156 35966 ft 445 kts 316°
2026-05-04 11:16 63.08968 -3.60025 36000 ft 445 kts 316°
2026-05-04 11:17 63.13686 -3.68957 35967 ft 448 kts 316°
2026-05-04 11:19 63.32504 -4.04977 35966 ft 446 kts 315°
2026-05-04 11:19 63.37188 -4.14045 35966 ft 446 kts 315°
2026-05-04 11:20 63.41885 -4.23180 35967 ft 449 kts 316°
2026-05-04 11:20 63.46599 -4.32389 35966 ft 450 kts 315°
2026-05-04 11:22 63.65360 -4.69453 35965 ft 449 kts 315°
2026-05-04 11:23 63.70043 -4.78812 35957 ft 450 kts 315°
2026-05-04 11:25 63.86425 -5.11894 35961 ft 452 kts 315°
2026-05-04 11:25 63.91094 -5.21420 35955 ft 451 kts 315°
2026-05-04 11:27 64.12175 -5.64998 35954 ft 454 kts 315°
2026-05-04 11:28 64.16837 -5.74762 35954 ft 454 kts 315°
2026-05-04 11:29 64.19625 -5.80625 35951 ft 454 kts 315°
2026-05-04 11:33 64.52230 -6.50440 35942 ft 456 kts 315°
2026-05-04 11:33 64.56857 -6.60543 35944 ft 456 kts 315°
2026-05-04 11:34 64.61472 -6.70668 35935 ft 456 kts 314°
2026-05-04 11:34 64.66082 -6.80833 35942 ft 456 kts 314°
2026-05-04 11:35 64.70686 -6.91033 35944 ft 456 kts 314°
2026-05-04 11:35 64.75249 -7.01193 35944 ft 456 kts 314°
2026-05-04 11:36 64.79839 -7.11461 35944 ft 456 kts 314°
2026-05-04 11:36 64.84426 -7.21779 35940 ft 457 kts 314°
2026-05-04 11:37 64.89018 -7.32155 35943 ft 458 kts 314°
2026-05-04 11:37 64.93611 -7.42586 35923 ft 457 kts 314°
2026-05-04 11:38 64.98185 -7.53025 35936 ft 456 kts 314°
2026-05-04 11:38 65.02722 -7.63433 35943 ft 456 kts 314°
2026-05-04 11:39 65.07274 -7.73928 35917 ft 456 kts 314°
2026-05-04 11:41 65.22423 -8.09241 35927 ft 459 kts 314°
2026-05-04 11:41 65.26974 -8.19965 35913 ft 459 kts 314°
2026-05-04 11:42 65.31479 -8.30637 35911 ft 459 kts 314°
2026-05-04 11:42 65.36008 -8.41420 35929 ft 458 kts 314°
2026-05-04 11:43 65.40519 -8.52217 35910 ft 458 kts 314°
2026-05-04 11:43 65.45033 -8.63076 35907 ft 459 kts 314°
2026-05-04 11:44 65.49512 -8.73906 35897 ft 459 kts 313°
2026-05-04 11:44 65.54012 -8.84844 35896 ft 459 kts 313°
2026-05-04 11:45 65.58502 -8.95813 35899 ft 459 kts 313°
2026-05-04 11:45 65.62983 -9.06820 35882 ft 459 kts 313°
2026-05-04 11:46 65.67463 -9.17881 35908 ft 460 kts 313°
2026-05-04 11:46 65.71944 -9.29006 35884 ft 461 kts 313°
2026-05-04 11:47 65.76397 -9.40114 35884 ft 461 kts 313°
2026-05-04 11:47 65.80867 -9.51324 35884 ft 461 kts 313°
2026-05-04 11:48 65.85325 -9.62566 35888 ft 461 kts 313°
2026-05-04 11:48 65.89776 -9.73851 35890 ft 461 kts 313°
2026-05-04 11:49 65.94226 -9.85194 35894 ft 461 kts 313°
2026-05-04 11:49 65.98650 -9.96514 35877 ft 462 kts 313°
2026-05-04 11:50 66.03510 -10.06885 35894 ft 463 kts 319°
2026-05-04 11:50 66.08527 -10.16869 35886 ft 464 kts 320°
2026-05-04 11:51 66.13567 -10.26820 35888 ft 463 kts 320°
2026-05-04 11:51 66.18586 -10.36790 35886 ft 463 kts 320°
2026-05-04 11:52 66.23609 -10.46845 35873 ft 464 kts 320°
2026-05-04 11:52 66.28631 -10.56959 35894 ft 464 kts 320°
2026-05-04 11:53 66.33622 -10.67067 35895 ft 464 kts 320°
2026-05-04 11:53 66.38634 -10.77269 35894 ft 464 kts 320°
2026-05-04 11:55 66.58566 -11.18385 35905 ft 465 kts 320°
2026-05-04 11:56 66.63548 -11.28803 35918 ft 465 kts 319°
2026-05-04 11:56 66.68506 -11.39225 35906 ft 466 kts 319°
2026-05-04 11:57 66.73489 -11.49754 35941 ft 465 kts 319°
2026-05-04 11:57 66.78418 -11.60229 35923 ft 466 kts 319°
2026-05-04 11:58 66.83388 -11.70850 35929 ft 466 kts 319°
2026-05-04 11:58 66.88325 -11.81456 35934 ft 466 kts 319°
2026-05-04 11:59 66.93285 -11.92170 35935 ft 466 kts 319°
2026-05-04 11:59 66.98233 -12.02917 35950 ft 467 kts 319°
2026-05-04 12:00 67.03181 -12.13724 35949 ft 466 kts 319°
2026-05-04 12:00 67.08079 -12.24484 35969 ft 467 kts 319°
2026-05-04 12:01 67.13013 -12.35381 35950 ft 468 kts 319°
2026-05-04 12:02 67.30233 -12.73894 35968 ft 468 kts 319°
2026-05-04 12:03 67.35133 -12.84994 35965 ft 468 kts 318°
2026-05-04 12:03 67.40038 -12.96167 35947 ft 469 kts 318°
2026-05-04 12:04 67.44930 -13.07375 35979 ft 467 kts 318°
2026-05-04 12:04 67.49776 -13.18540 35976 ft 466 kts 318°
2026-05-04 12:05 67.54631 -13.29792 35984 ft 466 kts 318°
2026-05-04 12:05 67.59483 -13.41100 35987 ft 466 kts 318°
2026-05-04 12:06 67.64329 -13.52458 36009 ft 467 kts 318°
2026-05-04 12:06 67.69189 -13.63916 36004 ft 468 kts 317°
2026-05-04 12:07 67.74005 -13.75333 35998 ft 468 kts 317°
2026-05-04 12:07 67.78851 -13.86893 36003 ft 468 kts 317°
2026-05-04 12:08 67.83681 -13.98478 36000 ft 468 kts 317°
2026-05-04 12:08 67.88472 -14.10038 36022 ft 468 kts 317°
2026-05-04 12:09 67.93290 -14.21731 36031 ft 468 kts 317°
2026-05-04 12:09 67.98085 -14.33436 36017 ft 467 kts 317°
2026-05-04 12:10 68.02857 -14.45155 36032 ft 464 kts 317°
2026-05-04 12:10 68.07559 -14.56770 36026 ft 462 kts 317°
2026-05-04 12:11 68.12287 -14.68516 36052 ft 464 kts 317°
2026-05-04 12:11 68.17028 -14.80366 36051 ft 464 kts 317°
2026-05-04 12:12 68.21706 -14.92123 36065 ft 461 kts 317°
2026-05-04 12:12 68.26398 -15.03990 36062 ft 463 kts 316°
2026-05-04 12:14 68.45097 -15.51982 36092 ft 464 kts 316°
2026-05-04 12:15 68.49733 -15.64058 36090 ft 463 kts 316°
2026-05-04 12:15 68.54384 -15.76247 36099 ft 463 kts 316°
2026-05-04 12:16 68.59021 -15.88474 36111 ft 466 kts 316°
2026-05-04 12:16 68.63672 -16.00811 36119 ft 463 kts 316°
2026-05-04 12:17 68.68297 -16.13132 36119 ft 462 kts 316°
2026-05-04 12:17 68.72888 -16.25435 36118 ft 464 kts 315°
2026-05-04 12:18 68.77520 -16.37940 36148 ft 465 kts 315°
2026-05-04 12:18 68.82115 -16.50461 36137 ft 461 kts 315°
2026-05-04 12:19 68.85919 -16.60878 36147 ft 464 kts 315°
2026-05-04 12:20 68.90565 -16.73661 36147 ft 466 kts 315°
2026-05-04 12:21 68.95139 -16.86313 36151 ft 464 kts 315°
2026-05-04 12:21 68.99709 -16.99033 36168 ft 463 kts 315°
2026-05-04 12:22 69.04241 -17.11726 36168 ft 466 kts 315°
2026-05-04 12:22 69.08828 -17.24653 36172 ft 467 kts 315°
2026-05-04 12:23 69.13366 -17.37521 36169 ft 462 kts 314°
2026-05-04 12:23 69.17860 -17.50348 36172 ft 463 kts 314°
2026-05-04 12:24 69.22392 -17.63363 36196 ft 464 kts 314°
2026-05-04 12:24 69.26878 -17.76331 36196 ft 462 kts 314°
2026-05-04 12:25 69.31349 -17.89335 36205 ft 462 kts 314°
2026-05-04 12:25 69.35840 -18.02480 36200 ft 465 kts 314°
2026-05-04 12:26 69.40303 -18.15625 36215 ft 464 kts 314°
2026-05-04 12:26 69.44759 -18.28837 36223 ft 460 kts 314°
2026-05-04 12:27 69.49196 -18.42075 36230 ft 463 kts 313°
2026-05-04 12:27 69.53658 -18.55473 36238 ft 465 kts 313°
2026-05-04 12:28 69.57338 -18.66589 36249 ft 462 kts 313°
2026-05-04 12:28 69.61746 -18.79984 36238 ft 461 kts 313°
2026-05-04 12:29 69.66158 -18.93479 36252 ft 464 kts 313°
2026-05-04 12:29 69.70554 -19.07006 36256 ft 463 kts 313°
2026-05-04 12:30 69.74932 -19.20572 36273 ft 457 kts 313°
2026-05-04 12:30 69.79025 -19.33335 36277 ft 460 kts 313°
2026-05-04 12:31 69.83361 -19.46943 36289 ft 465 kts 313°
2026-05-04 12:31 69.87745 -19.60789 36295 ft 465 kts 313°
2026-05-04 12:32 69.94243 -19.81483 36309 ft 458 kts 312°
2026-05-04 12:33 69.98510 -19.95188 36314 ft 459 kts 312°
2026-05-04 12:33 70.02399 -20.10215 36314 ft 462 kts 306°
2026-05-04 12:34 70.06012 -20.25516 36341 ft 458 kts 304°
2026-05-04 12:34 70.09609 -20.41088 36339 ft 459 kts 304°
2026-05-04 12:35 70.13151 -20.56514 36339 ft 455 kts 304°
2026-05-04 12:35 70.16701 -20.72049 36346 ft 462 kts 304°
2026-05-04 12:36 70.20302 -20.87902 36360 ft 465 kts 304°
2026-05-04 12:36 70.23874 -21.03748 36355 ft 462 kts 304°
2026-05-04 12:37 70.26841 -21.16995 36356 ft 463 kts 303°
2026-05-04 12:37 70.30408 -21.33034 36362 ft 466 kts 303°
2026-05-04 12:38 70.33963 -21.49140 36373 ft 469 kts 303°
2026-05-04 12:38 70.37527 -21.65409 36371 ft 469 kts 303°
2026-05-04 12:39 70.41053 -21.81629 36380 ft 469 kts 303°
2026-05-04 12:39 70.44582 -21.97989 36382 ft 469 kts 303°
2026-05-04 12:40 70.48102 -22.14428 36371 ft 468 kts 302°
2026-05-04 12:40 70.51586 -22.30828 36394 ft 465 kts 302°
2026-05-04 12:41 70.55033 -22.47171 36399 ft 466 kts 302°
2026-05-04 12:41 70.58510 -22.63790 36400 ft 469 kts 302°
2026-05-04 12:42 70.61964 -22.80433 36400 ft 470 kts 302°
2026-05-04 12:42 70.65403 -22.97126 36395 ft 470 kts 302°
2026-05-04 12:43 70.68842 -23.13957 36402 ft 470 kts 302°
2026-05-04 12:43 70.72262 -23.30823 36404 ft 470 kts 301°
2026-05-04 12:44 70.75649 -23.47660 36422 ft 470 kts 301°
2026-05-04 12:44 70.79048 -23.64693 36424 ft 471 kts 301°
2026-05-04 12:45 70.82412 -23.81686 36425 ft 472 kts 301°
2026-05-04 12:45 70.85783 -23.98857 36424 ft 472 kts 301°
2026-05-04 12:46 70.89137 -24.16076 36425 ft 472 kts 301°
2026-05-04 12:46 70.92460 -24.33277 36425 ft 472 kts 301°
2026-05-04 12:47 70.95783 -24.50620 36425 ft 472 kts 300°
2026-05-04 12:47 70.99077 -24.67952 36425 ft 472 kts 300°
2026-05-04 12:48 71.02378 -24.85464 36422 ft 473 kts 300°
2026-05-04 12:48 71.05650 -25.02972 36421 ft 474 kts 300°
2026-05-04 12:49 71.08922 -25.20624 36422 ft 474 kts 300°
2026-05-04 12:49 71.12161 -25.38249 36423 ft 474 kts 300°
2026-05-04 12:50 71.15397 -25.56006 36425 ft 473 kts 299°
2026-05-04 12:50 71.18588 -25.73664 36426 ft 472 kts 299°
2026-05-04 12:51 71.21789 -25.91529 36439 ft 474 kts 299°
2026-05-04 12:51 71.24977 -26.09478 36435 ft 474 kts 299°
2026-05-04 12:52 71.28135 -26.27414 36475 ft 475 kts 298°
2026-05-04 12:52 71.31292 -26.45501 36475 ft 474 kts 298°
2026-05-04 12:53 71.34413 -26.63536 36482 ft 474 kts 298°
2026-05-04 12:53 71.37536 -26.81744 36502 ft 474 kts 298°
2026-05-04 12:54 71.40642 -27.00009 36511 ft 475 kts 298°
2026-05-04 12:54 71.43735 -27.18364 36491 ft 476 kts 297°
2026-05-04 12:55 71.46793 -27.36676 36500 ft 475 kts 297°
2026-05-04 12:55 71.49846 -27.55125 36499 ft 475 kts 297°
2026-05-04 12:56 71.52881 -27.73626 36509 ft 475 kts 297°
2026-05-04 12:56 71.55896 -27.92180 36507 ft 475 kts 297°
2026-05-04 12:57 71.58896 -28.10804 36502 ft 475 kts 297°
2026-05-04 12:57 71.61859 -28.29377 36523 ft 476 kts 297°
2026-05-04 12:58 71.64834 -28.48188 36520 ft 477 kts 296°
2026-05-04 12:58 71.67790 -28.67061 36532 ft 477 kts 296°
2026-05-04 12:59 71.70732 -28.86026 36528 ft 477 kts 296°
2026-05-04 12:59 71.73633 -29.04904 36541 ft 477 kts 296°
2026-05-04 13:00 71.76532 -29.23943 36560 ft 476 kts 296°
2026-05-04 13:00 71.79404 -29.42989 36561 ft 475 kts 295°
2026-05-04 13:01 71.82249 -29.62022 36560 ft 472 kts 295°
2026-05-04 13:01 71.85057 -29.80989 36541 ft 470 kts 295°
2026-05-04 13:02 71.87817 -29.99850 36538 ft 469 kts 295°
2026-05-04 13:02 71.90579 -30.18899 36521 ft 469 kts 295°
2026-05-04 13:03 71.93316 -30.37950 36518 ft 468 kts 295°
2026-05-04 13:03 71.96017 -30.56932 36509 ft 468 kts 295°
2026-05-04 13:04 71.98719 -30.76110 36493 ft 469 kts 294°
2026-05-04 13:04 72.01417 -30.95440 36496 ft 470 kts 294°
2026-05-04 13:05 72.04078 -31.14717 36486 ft 472 kts 294°
2026-05-04 13:05 72.06760 -31.34343 36493 ft 477 kts 294°
2026-05-04 13:06 72.09417 -31.53963 36479 ft 476 kts 293°
2026-05-04 13:06 72.12069 -31.73745 36479 ft 475 kts 293°
2026-05-04 13:07 72.14681 -31.93445 36475 ft 473 kts 293°
2026-05-04 13:07 72.17249 -32.13025 36467 ft 471 kts 293°
2026-05-04 13:08 72.19824 -32.32879 36475 ft 475 kts 293°
2026-05-04 13:08 72.22371 -32.52705 36477 ft 475 kts 292°
2026-05-04 13:09 72.24920 -32.72762 36470 ft 478 kts 292°
2026-05-04 13:09 72.27460 -32.92961 36478 ft 478 kts 292°
2026-05-04 13:10 72.29957 -33.13039 36479 ft 477 kts 292°
2026-05-04 13:10 72.32441 -33.33235 36487 ft 475 kts 292°
2026-05-04 13:11 72.34899 -33.53438 36486 ft 474 kts 291°
2026-05-04 13:11 72.37322 -33.73584 36487 ft 477 kts 291°
2026-05-04 13:12 72.39755 -33.94031 36487 ft 477 kts 291°
2026-05-04 13:12 72.42136 -34.14267 36475 ft 473 kts 291°
2026-05-04 13:13 72.44497 -34.34577 36475 ft 473 kts 291°
2026-05-04 13:13 72.46843 -34.54985 36468 ft 475 kts 290°
2026-05-04 13:14 72.49180 -34.75538 36472 ft 477 kts 290°
2026-05-04 13:14 72.51496 -34.96150 36462 ft 477 kts 290°
2026-05-04 13:15 72.53791 -35.16826 36473 ft 476 kts 290°
2026-05-04 13:15 72.56070 -35.37598 36470 ft 477 kts 290°
2026-05-04 13:16 72.58321 -35.58366 36462 ft 478 kts 290°
2026-05-04 13:16 72.60183 -35.75733 36444 ft 477 kts 289°
2026-05-04 13:17 72.62398 -35.96636 36467 ft 476 kts 289°
2026-05-04 13:17 72.64579 -36.17467 36455 ft 477 kts 289°
2026-05-04 13:18 72.66752 -36.38472 36459 ft 475 kts 289°
2026-05-04 13:18 72.68891 -36.59430 36444 ft 474 kts 289°
2026-05-04 13:19 72.71024 -36.80579 36436 ft 478 kts 288°
2026-05-04 13:19 72.73122 -37.01658 36427 ft 475 kts 288°
2026-05-04 13:20 72.75209 -37.22895 36442 ft 478 kts 288°
2026-05-04 13:20 72.77262 -37.44058 36442 ft 477 kts 288°
2026-05-04 13:21 72.79308 -37.65425 36457 ft 476 kts 288°
2026-05-04 13:21 72.81316 -37.86681 36435 ft 477 kts 288°
2026-05-04 13:22 72.83309 -38.08072 36447 ft 476 kts 288°
2026-05-04 13:22 72.85275 -38.29455 36459 ft 476 kts 287°
2026-05-04 13:23 72.87216 -38.50851 36456 ft 476 kts 287°
2026-05-04 13:23 72.89145 -38.72422 36445 ft 479 kts 287°
2026-05-04 13:24 72.91065 -38.94199 36461 ft 480 kts 287°
2026-05-04 13:24 72.92944 -39.15820 36457 ft 477 kts 286°
2026-05-04 13:25 72.95704 -39.48151 36458 ft 473 kts 286°
2026-05-04 13:25 72.97515 -39.69757 36462 ft 475 kts 286°
2026-05-04 13:26 72.99317 -39.91561 36402 ft 478 kts 286°
2026-05-04 13:26 73.00072 -40.02603 36585 ft 477 kts 281°
2026-05-04 13:26 73.00678 -40.13818 36692 ft 478 kts 280°
2026-05-04 13:27 73.01239 -40.24959 36931 ft 476 kts 280°
2026-05-04 13:27 73.01770 -40.36016 37088 ft 475 kts 279°
2026-05-04 13:27 73.02290 -40.47141 37285 ft 474 kts 279°
2026-05-04 13:27 73.02805 -40.58348 37288 ft 477 kts 279°
2026-05-04 13:28 73.03828 -40.80931 37477 ft 479 kts 279°
2026-05-04 13:28 73.04325 -40.92041 37779 ft 475 kts 279°
2026-05-04 13:28 73.04822 -41.03285 37901 ft 475 kts 279°
2026-05-04 13:29 73.05310 -41.14438 38192 ft 471 kts 279°
2026-05-04 13:29 73.05790 -41.25552 38256 ft 472 kts 279°
2026-05-04 13:29 73.06733 -41.47835 38282 ft 477 kts 278°
2026-05-04 13:30 73.07201 -41.59110 38465 ft 476 kts 278°
2026-05-04 13:30 73.07661 -41.70359 38486 ft 476 kts 278°
2026-05-04 13:30 73.08555 -41.92683 38503 ft 473 kts 278°
2026-05-04 13:31 73.09429 -42.15134 38501 ft 474 kts 278°
2026-05-04 13:31 73.10281 -42.37677 38498 ft 474 kts 278°
2026-05-04 13:32 73.11098 -42.59975 38508 ft 473 kts 278°
2026-05-04 13:32 73.11899 -42.82508 38510 ft 475 kts 277°
2026-05-04 13:33 73.12675 -43.05061 38514 ft 473 kts 277°
2026-05-04 13:33 73.13426 -43.27599 38521 ft 473 kts 277°
2026-05-04 13:34 73.14151 -43.50127 38510 ft 475 kts 277°
2026-05-04 13:34 73.14853 -43.72754 38512 ft 472 kts 276°
2026-05-04 13:35 73.15855 -44.06543 38527 ft 475 kts 276°
2026-05-04 13:36 73.16496 -44.29230 38513 ft 473 kts 276°
2026-05-04 13:36 73.17106 -44.51711 38525 ft 474 kts 276°
2026-05-04 13:37 73.17699 -44.74448 38530 ft 474 kts 276°
2026-05-04 13:37 73.18260 -44.96976 38513 ft 472 kts 276°
2026-05-04 13:38 73.18800 -45.19649 38526 ft 474 kts 275°
2026-05-04 13:38 73.19316 -45.42354 38521 ft 472 kts 275°
2026-05-04 13:39 73.19802 -45.64862 38519 ft 472 kts 275°
2026-05-04 13:39 73.20269 -45.87635 38529 ft 473 kts 275°
2026-05-04 13:40 73.20706 -46.10168 38530 ft 471 kts 274°
2026-05-04 13:40 73.21121 -46.32887 38526 ft 473 kts 274°
2026-05-04 13:41 73.21512 -46.55613 38521 ft 471 kts 274°
2026-05-04 13:41 73.21877 -46.78279 38531 ft 473 kts 274°
2026-05-04 13:42 73.22377 -47.12232 38533 ft 471 kts 274°
2026-05-04 13:42 73.22680 -47.34932 38531 ft 472 kts 273°
2026-05-04 13:43 73.22957 -47.57652 38525 ft 470 kts 273°
2026-05-04 13:43 73.23208 -47.80182 38527 ft 471 kts 272°
2026-05-04 13:44 73.23437 -48.02956 38529 ft 471 kts 273°
2026-05-04 13:44 73.23638 -48.25483 38516 ft 471 kts 272°
2026-05-04 13:45 73.23817 -48.48284 38523 ft 472 kts 272°
2026-05-04 13:45 73.23971 -48.70850 38521 ft 471 kts 272°
2026-05-04 13:46 73.24100 -48.93660 38514 ft 471 kts 272°
2026-05-04 13:46 73.24204 -49.16297 38517 ft 468 kts 271°
2026-05-04 13:47 73.24282 -49.38806 38520 ft 469 kts 271°
2026-05-04 13:47 73.24337 -49.61419 38502 ft 468 kts 271°
2026-05-04 13:48 73.24366 -49.83950 38507 ft 470 kts 271°
2026-05-04 13:48 73.24371 -50.06594 38517 ft 468 kts 271°
2026-05-04 13:49 73.24352 -50.29108 38513 ft 470 kts 270°
2026-05-04 13:49 73.24308 -50.51715 38508 ft 467 kts 270°
2026-05-04 13:50 73.24239 -50.74305 38509 ft 469 kts 270°
2026-05-04 13:50 73.24146 -50.96731 38508 ft 466 kts 270°
2026-05-04 13:51 73.24029 -51.19246 38525 ft 467 kts 270°
2026-05-04 13:51 73.23889 -51.41570 38532 ft 466 kts 269°